CW9259 Weather Reports


Display with metric or nautical units.
time (UTC)temp
F
wind
direction
speed
MPH
gust
MPH
rain 1hr
in
rain 24hr
in
rain mn
in
humidity
%
barometer
mb
20260505163141 57 327.0 255.0 0.00 0.40 0.24 81 1010.0
20260505161605 58 65 3.0 9.0 0.00 0.40 0.24 81 1009.9
20260505153136 58 136 2.0 4.0 0.00 0.40 0.24 82 1010.0
20260505151601 57 123 2.0 4.0 0.00 0.40 0.24 82 1010.0
20260505150128 57 137 2.0 4.0 0.00 0.40 0.24 82 1010.1
20260505124602 56 220 0.0 4.0 0.00 0.40 0.24 84 1010.8
20260505123129 56 111 1.0 4.0 0.00 0.40 0.24 85 1010.9
20260505121627 55 126 2.0 5.0 0.00 0.40 0.24 86 1010.9
20260505120140 55 250 3.0 5.0 0.00 0.40 0.24 86 1011.0
20260505114600 54 132 0.0 4.0 0.00 0.40 0.24 86 1011.0
20260505114501 54 132 0.0 4.0 0.00 0.40 0.24 86 1011.0
20260505113122 54 141 2.0 4.0 0.00 0.40 0.24 87 1011.1
20260505111600 54 224 3.0 4.0 0.01 0.40 0.24 88 1011.1
20260505110124 54 276 3.0 4.0 0.01 0.40 0.24 87 1011.2
20260505101559 53 348 1.0 2.0 0.01 0.39 0.24 91 1011.4
20260505100140 53 355 0.0 3.0 0.02 0.39 0.24 91 1011.4
20260505094556 53 235 0.0 2.0 0.02 0.39 0.24 93 1011.3
20260505093134 52 231 1.0 2.0 0.02 0.39 0.23 93 1011.4
20260505091617 52 232 1.0 3.0 0.02 0.39 0.23 94 1011.3
20260505090124 52 136 0.0 2.0 0.02 0.38 0.22 96 1011.1
20260505084600 51 135 2.0 4.0 0.02 0.38 0.22 95 1011.2
20260505083133 51 165 0.0 2.0 0.02 0.37 0.21 95 1010.9
20260505081557 50 241 1.0 5.0 0.03 0.37 0.21 95 1010.8
20260505080122 50 193 2.0 6.0 0.03 0.36 0.20 95 1010.9
20260505074557 50 227 4.0 7.0 0.03 0.35 0.20 94 1010.7
20260505073128 51 194 3.0 7.0 0.03 0.35 0.19 94 1010.7
20260505071556 51 165 5.0 9.0 0.03 0.34 0.18 95 1010.6
20260505070138 50 129 1.0 4.0 0.03 0.33 0.17 95 1010.5
20260505064608 50 128 1.0 6.0 0.04 0.32 0.17 95 1010.5
20260505063124 50 157 0.0 2.0 0.04 0.31 0.16 94 1010.3
20260505061557 49 150 1.0 5.0 0.05 0.31 0.15 93 1010.4
20260505060131 49 130 2.0 7.0 0.04 0.28 0.13 93 1010.3
20260505054619 49 115 3.0 6.0 0.05 0.28 0.13 93 1010.3
20260505053138 49 113 1.0 4.0 0.05 0.28 0.12 93 1010.2
20260505051557 49 280 0.0 6.0 0.05 0.26 0.10 92 1010.4
20260505050125 49 179 3.0 5.0 0.05 0.25 0.09 91 1010.6
20260505041609 49 134 2.0 4.0 0.04 0.21 0.06 90 1010.8
20260505040121 50 200 0.0 3.0 0.04 0.20 0.05 89 1010.9
20260505034556 50 137 2.0 5.0 0.03 0.19 0.03 88 1010.8
20260505033133 50 95 0.0 3.0 0.02 0.18 0.02 86 1010.7
20260505031559 50 242 4.0 10.0 0.02 0.17 0.02 86 1010.8
20260505030138 50 227 4.0 9.0 0.01 0.17 0.01 87 1011.0
20260505024615 50 251 2.0 3.0 0.00 0.16 0.00 87 1010.9
20260505023139 50 26 2.0 5.0 0.00 0.16 0.00 86 1010.8
20260505021600 51 313 1.0 3.0 0.00 0.16 0.00 85 1010.8
20260505020129 51 333 2.0 6.0 0.00 0.16 0.00 84 1010.9
20260505014558 51 325 2.0 7.0 0.00 0.16 0.00 84 1011.2
20260505013136 51 315 1.0 4.0 0.00 0.16 0.00 83 1011.4
20260505011558 51 295 1.0 3.0 0.00 0.16 0.00 82 1011.7
20260505010126 52 313 1.0 3.0 0.00 0.16 0.00 81 1012.1
20260505004557 52 323 0.0 3.0 0.00 0.16 0.00 80 1012.5
20260505003138 52 327 2.0 4.0 0.00 0.16 0.00 80 1012.8
20260505001557 53 320 2.0 3.0 0.00 0.16 0.00 79 1013.0
20260505000139 53 290 2.0 6.0 0.00 0.16 0.00 77 1013.1
20260504234558 54 226 3.0 7.0 0.00 0.16 0.00 76 1013.4
20260504233129 56 116 4.0 11.0 0.00 0.16 0.00 70 1013.3
20260504231559 58 271 8.0 24.0 0.00 0.16 0.00 54 1013.1
20260504230001 58 252 17.0 26.0 0.00 0.16 0.00 54 1013.3
20260504224625 57 294 15.0 23.0 0.00 0.16 0.16 59 1013.3
20260504223126 57 316 13.0 24.0 0.00 0.16 0.16 59 1013.5
20260504221557 57 317 17.0 26.0 0.00 0.16 0.16 59 1013.7
20260504220136 57 339 13.0 26.0 0.00 0.16 0.16 60 1014.0
20260504214557 57 302 11.0 22.0 0.00 0.16 0.16 63 1014.1
20260504213139 56 267 12.0 21.0 0.00 0.16 0.16 64 1014.3
20260504211601 56 284 12.0 25.0 0.00 0.16 0.16 64 1014.3
20260504210129 56 297 12.0 20.0 0.00 0.16 0.16 66 1014.4
20260504204602 56 281 10.0 24.0 0.00 0.16 0.16 67 1014.6
20260504203139 55 310 12.0 21.0 0.01 0.16 0.16 68 1014.8
20260504201604 54 325 15.0 25.0 0.01 0.16 0.16 71 1014.7
20260504200128 54 302 11.0 26.0 0.02 0.16 0.16 73 1014.7
20260504194557 53 315 11.0 22.0 0.02 0.16 0.16 75 1014.7
20260504193135 52 296 12.0 24.0 0.03 0.15 0.15 78 1014.8
20260504191610 52 311 17.0 25.0 0.05 0.15 0.15 78 1014.5
20260504190140 53 327 13.0 30.0 0.06 0.14 0.14 77 1014.5
20260504184557 52 324 15.0 35.0 0.06 0.13 0.13 78 1014.3
20260504183130 53 294 16.0 25.0 0.06 0.12 0.12 78 1014.5
20260504181602 54 300 16.0 27.0 0.07 0.10 0.10 76 1014.5
20260504180137 54 355 12.0 21.0 0.07 0.09 0.09 76 1014.5
20260504174559 55 282 12.0 21.0 0.07 0.07 0.07 75 1014.5
20260504173126 55 313 4.0 9.0 0.06 0.06 0.06 80 1014.5
20260504171557 57 360 2.0 10.0 0.03 0.03 0.03 80 1014.6
20260504170134 58 297 2.0 4.0 0.02 0.02 0.02 80 1014.4